VK3XEM-13 Weather Reports


time (UTC)temp
C
wind
direction
speed
KPH
gust
KPH
rain 1hr
cm
rain 24hr
cm
rain mn
cm
humidity
%
barometer
mb
20260510220214 8 192 1.6 4.8 0.00 0.00 0.00 97 1031.4
20260510214714 8 161 0.0 1.6 0.00 0.00 0.00 97 1031.4
20260510213214 8 191 0.0 1.6 0.00 0.00 0.00 97 1031.4
20260510211714 8 173 1.6 1.6 0.00 0.00 0.00 97 1031.0
20260510210214 8 221 0.0 0.0 0.00 0.00 0.00 97 1031.0
20260510204714 8 193 0.0 0.0 0.00 0.00 0.00 97 1030.7
20260510203214 8 194 0.0 0.0 0.00 0.00 0.00 97 1030.7
20260510201715 8 193 0.0 0.0 0.00 0.00 0.00 97 1030.7
20260510200214 8 194 0.0 0.0 0.00 0.00 0.00 97 1030.3
20260510194714 8 194 0.0 0.0 0.00 0.00 0.00 97 1030.3
20260510193214 7 194 0.0 0.0 0.00 0.00 0.00 97 1030.3
20260510191714 7 200 0.0 0.0 0.00 0.00 0.00 97 1029.7
20260510190214 7 191 0.0 1.6 0.00 0.00 0.00 97 1029.7
20260510184714 7 191 0.0 0.0 0.00 0.00 0.00 97 1029.7
20260510183214 7 170 0.0 0.0 0.00 0.00 0.00 97 1029.7
20260510181714 7 213 1.6 1.6 0.00 0.00 0.00 97 1029.3
20260510180214 7 213 1.6 1.6 0.00 0.00 0.00 97 1029.3
20260510174715 6 192 0.0 3.2 0.00 0.00 0.00 97 1029.3
20260510173214 6 212 0.0 0.0 0.00 0.00 0.00 96 1029.3
20260510171714 6 201 0.0 1.6 0.00 0.00 0.00 96 1029.3
20260510170214 6 207 0.0 0.0 0.00 0.00 0.00 96 1029.0
20260510164714 6 214 0.0 0.0 0.00 0.00 0.00 96 1029.3
20260510163215 6 217 0.0 0.0 0.00 0.00 0.00 96 1029.3
20260510161714 6 265 0.0 0.0 0.00 0.00 0.00 96 1029.3
20260510160214 6 327 0.0 0.0 0.00 0.00 0.00 96 1029.3
20260510154714 6 328 0.0 0.0 0.00 0.00 0.00 96 1029.7
20260510153214 6 327 0.0 0.0 0.00 0.00 0.00 96 1029.3
20260510151714 6 328 0.0 0.0 0.00 0.00 0.00 96 1029.7
20260510150214 6 328 0.0 0.0 0.00 0.00 0.00 95 1029.3
20260510144715 6 327 0.0 0.0 0.00 0.00 0.00 95 1029.7
20260510143214 6 328 0.0 0.0 0.00 0.00 0.00 95 1029.7
20260510141714 6 328 0.0 0.0 0.00 0.00 0.00 95 1029.3
20260510140214 6 328 0.0 0.0 0.00 0.00 0.00 95 1029.3
20260510134714 7 327 0.0 0.0 0.00 0.00 0.05 95 1029.7
20260510133215 7 328 0.0 0.0 0.00 0.00 0.05 95 1029.7
20260510131714 7 327 0.0 0.0 0.00 0.00 0.05 95 1029.7
20260510130215 7 327 0.0 0.0 0.00 0.00 0.05 95 1029.7
20260510124714 7 327 0.0 0.0 0.00 0.00 0.05 94 1029.7
20260510123214 7 327 0.0 0.0 0.00 0.00 0.05 94 1029.7
20260510121714 7 328 0.0 0.0 0.00 0.00 0.05 94 1030.0
20260510120214 7 328 0.0 0.0 0.00 0.00 0.05 94 1029.7
20260510114714 7 328 0.0 0.0 0.00 0.00 0.05 94 1030.0
20260510113215 7 328 0.0 0.0 0.00 0.00 0.05 93 1030.0
20260510111714 8 328 0.0 0.0 0.00 0.00 0.05 93 1029.7
20260510110214 8 328 0.0 0.0 0.00 0.00 0.05 93 1029.3
20260510104714 8 328 0.0 0.0 0.00 0.00 0.05 93 1029.3
20260510103214 8 328 0.0 0.0 0.00 0.00 0.05 93 1029.3
20260510101715 8 327 0.0 0.0 0.00 0.00 0.05 92 1029.7
20260510100214 8 328 0.0 0.0 0.00 0.00 0.05 92 1029.3
20260510094715 8 328 0.0 0.0 0.00 0.00 0.05 91 1029.3
20260510093214 9 328 0.0 0.0 0.00 0.00 0.05 90 1029.3
20260510091714 9 328 0.0 0.0 0.00 0.00 0.05 89 1029.0
20260510090214 10 328 0.0 0.0 0.00 0.00 0.05 88 1029.3
20260510084714 10 328 0.0 0.0 0.00 0.00 0.05 86 1029.0
20260510083215 11 328 0.0 0.0 0.00 0.00 0.05 84 1028.6
20260510081714 12 328 0.0 0.0 0.00 0.00 0.05 81 1028.6
20260510080214 12 327 0.0 0.0 0.00 0.00 0.05 78 1028.6
20260510074715 13 327 0.0 0.0 0.00 0.00 0.05 75 1028.3
20260510073214 13 327 0.0 0.0 0.00 0.00 0.05 72 1028.3
20260510071714 14 329 0.0 0.0 0.00 0.00 0.05 69 1028.3
20260510070214 15 306 1.6 1.6 0.00 0.00 0.05 66 1028.0
20260510064714 16 282 0.0 1.6 0.00 0.00 0.05 64 1028.0
20260510063214 16 342 0.0 1.6 0.00 0.00 0.05 61 1028.0
20260510061714 16 343 1.6 3.2 0.00 0.00 0.05 62 1027.6
20260510060214 16 301 4.8 6.4 0.00 0.00 0.05 63 1027.6
20260510054714 16 313 1.6 1.6 0.00 0.00 0.05 61 1027.6
20260510053214 17 305 3.2 4.8 0.00 0.00 0.05 60 1027.6
20260510051715 16 80 3.2 3.2 0.00 0.00 0.05 60 1027.6
20260510050214 15 85 1.6 3.2 0.00 0.00 0.05 61 1027.6
20260510044714 15 1 1.6 4.8 0.00 0.00 0.05 64 1027.6
20260510043214 16 67 0.0 4.8 0.00 0.00 0.05 61 1027.6
20260510041714 17 272 1.6 3.2 0.00 0.00 0.05 59 1027.6
20260510040214 16 103 0.0 1.6 0.00 0.00 0.05 62 1027.6
20260510034714 15 60 1.6 4.8 0.00 0.00 0.05 65 1028.0
20260510033214 15 44 1.6 4.8 0.00 0.00 0.05 65 1027.6
20260510031714 15 300 3.2 3.2 0.00 0.00 0.05 65 1028.0
20260510030214 15 17 0.0 3.2 0.00 0.00 0.05 67 1028.0
20260510024714 15 342 1.6 6.4 0.00 0.00 0.05 67 1028.3
20260510023214 15 9 0.0 3.2 0.00 0.00 0.05 68 1028.6
20260510021714 15 347 0.0 3.2 0.00 0.00 0.05 66 1028.6
20260510020215 15 7 3.2 3.2 0.00 0.00 0.05 66 1028.6
20260510014714 15 11 3.2 6.4 0.00 0.00 0.05 66 1029.0
20260510013214 15 323 3.2 4.8 0.00 0.00 0.05 67 1029.3
20260510011714 15 342 3.2 11.3 0.00 0.00 0.05 67 1029.3
20260510010214 15 20 1.6 6.4 0.00 0.00 0.05 68 1029.3
20260510004714 14 318 1.6 4.8 0.00 0.00 0.05 69 1029.3
20260510003214 14 52 1.6 3.2 0.00 0.00 0.05 71 1029.3
20260510001714 14 58 1.6 3.2 0.00 0.00 0.05 71 1029.3
20260510000214 14 49 0.0 1.6 0.00 0.00 0.05 75 1029.3
20260509234714 13 2 0.0 0.0 0.00 0.00 0.05 77 1029.3
20260509233214 13 0 1.6 1.6 0.00 0.00 0.05 79 1029.3
20260509231714 13 329 0.0 0.0 0.00 0.00 0.05 81 1029.3
20260509230214 13 343 0.0 1.6 0.00 0.00 0.05 83 1029.3
20260509224715 13 28 0.0 0.0 0.00 0.00 0.05 87 1029.0
20260509223214 12 29 0.0 0.0 0.00 0.00 0.05 89 1028.6
20260509221715 12 29 0.0 0.0 0.00 0.00 0.05 91 1028.6